Regional Weather Roundup
Issued by NWS Mobile, AL

Home | Current Version | Previous Version | Text Only | Print | Product List | Glossary Off
Versions: 1 2 3 4 5 6 7 8 9 10 11 12 13 14 15 16 17 18 19 20 21 22 23 24 25 26 27 28 29 30 31 32 33 34 35 36 37 38 39 40 41 42 43 44 45 46 47 48 49 50

000
ASUS44 KMOB 280517
RWRMOB
REGIONAL WEATHER ROUNDUP
NATIONAL WEATHER SERVICE MOBILE AL
1200 AM CDT TUE APR 28 2015

ALZ061>064-280600-
COASTAL ALABAMA


CITY           SKY/WX    TMP DP  RH WIND       PRES   REMARKS
MOBILE REG APT CLOUDY    61  61 100 NE12      29.84R
BROOKLEY FIELD LGT RAIN  64  61  90 N9        29.86S
GULF SHORES    RAIN      62  61  96 CALM      29.84F

$$

ALZ051>060-280600-
INTERIOR SOUTHWEST AND SOUTH CENTRAL ALABAMA


CITY           SKY/WX    TMP DP  RH WIND       PRES   REMARKS
ANDALUSIA/OPP  CLOUDY    66  59  78 NE5       29.86R
EVERGREEN      CLOUDY    61  56  83 N3        29.86S
FLORALA        CLOUDY    63  60  90 NE3       29.85R
GREENVILLE     FAIR      60  50  69 NE6       29.87R

$$

FLZ001>006-280600-
WESTERN FLORIDA PANHANDLE


CITY           SKY/WX    TMP DP  RH WIND       PRES   REMARKS
CRESTVIEW      CLOUDY    64  62  93 VRB3      29.86R
DESTIN         LGT RAIN  68  64  87 NE5       29.84R
DUKE FIELD     CLOUDY    64  62  92 N6        29.83R
MARY ESTHER    LGT RAIN  66  61  82 N6        29.84R
MILTON         LGT RAIN  66  61  84 N6        29.85R
PENSACOLA      LGT RAIN  64  62  93 N3        29.85R
NAS PENSACOLA  LGT RAIN  64  63  96 N5        29.84R
VALPARAISO     CLOUDY    65  63  90 N3        29.84R

$$

...MARINE OBSERVATIONS...

STATION/POSITION TIME  SKY/WX   TEMP    WIND        PRES    VSBY
                                AIR SEA DIR/SP/G
                 (UTC)          (F)     (DEG/KT/KT) (MB)    (MI)
PASCAGOULA       0400            63      80/  6/  8 1010.2R
PETIT BOIS ISL   0400            67      30/ 11/ 13 1010.9R
E DAUPHIN ISLAND 0500            66      80/  6/  7 1010.1S
MIDDLE BAY LIGHT 0400            65      20/ 14     1010.2R
USCG MOBILE BAY  0406            63 72   60/  2/  5 1009.2R
STATE DOCKS      0406            63 70              1009.7F
MEAHER PARK      0500            64     330/ 10     1011.2R
FORT MORGAN      0406            65      70/ 11/ 13 1009.8R
12 S ORANGE BCH  0450            68 73   30/  6/  8 1009.7R
WVE H/P(F/S)=  4/ 6

PENSACOLA BAY    0400            69 75   20/  6/ 10 1009.5F
64 S DAUPHIN ISL 0450            72 76   50/ 16/ 17 1009.3F
WVE H/P(F/S)=  7/ 6

67 S FORT MORGAN 0430            71                 1009.8R
115 SE PENSACOLA 0450            76 76  160/ 16/ 19 1007.5R
WVE H/P(F/S)=  4/ 4

MID GULF/42001   0450            80 80  140/ 21/ 25 1004.8F
WVE H/P(F/S)=  6/ 7

EAST GULF/42003  0450            80 80  100/ 10/ 12 1008.6F
WVE H/P(F/S)=  4/ 6


$$

...NEARBY LOCATIONS

CITY           SKY/WX    TMP DP  RH WIND       PRES   REMARKS
GULFPORT       LGT RAIN  63  61  93 E12       29.77F
BILOXI         LGT RAIN  64  64 100 E6        29.80R
PASCAGOULA     LGT RAIN  62  61  96 N8        29.83F
HATTIESBURG    CLOUDY    60  57  89 SE14      29.78F
LAUREL         CLOUDY    59  52  77 NE12      29.81F
MERIDIAN       CLOUDY    59  48  67 NE9       29.87F
MERIDIAN NAS   CLOUDY    58  47  66 NE7       29.89F
MONTGOMERY     CLOUDY    61  49  64 CALM      29.89R
MAXWELL AFB    CLOUDY    59  50  71 NW2       29.88R
TROY           CLOUDY    61  51  70 NE5       29.88R
FORT RUCKER    CLOUDY    65  59  81 NE3       29.83R
DALEVILLE      CLOUDY    64  58  83 N7        29.83S
DOTHAN         CLOUDY    63  61  93 N5        29.88R

$$

...OTHER SURROUNDING LOCATIONS...

CITY           SKY/WX    TMP DP  RH WIND       PRES   REMARKS
BIRMINGHAM     CLOUDY    58  43  57 NE3       29.92R
TUSCALOOSA     CLOUDY    56  48  74 N5        29.91R
COLUMBUS GA    CLOUDY    61  41  47 CALM      29.87R
PANAMA CITY    NOT AVBL
TALLAHASSEE    CLOUDY    69  65  86 E7        29.80F
BATON ROUGE    CLOUDY    62  60  93 N6        29.78R
NEW ORLEANS    CLOUDY    69  65  86 SE15G28   29.72F
SLIDELL        CLOUDY    63  63 100 NE7       29.77R
JACKSON        CLOUDY    58  50  75 N5        29.87F
MCCOMB         CLOUDY    59  57  93 NE7       29.82S

$$

...SURROUNDING MARINE OBSERVATIONS...

STATION/POSITION TIME  SKY/WX   TEMP    WIND        PRES    VSBY
                                AIR SEA DIR/SP/G
                 (UTC)          (F)     (DEG/KT/KT) (MB)    (MI)
WAVELAND         0400            63 72  150/ 12/ 15 1009.7S
PASCAGOULA RGN A 0400            63      50/  7/ 11 1010.1R
PASCAGOULA PORT  0400               74                N/A
GRAND ISLE       0406            71 76   80/ 10/ 16 1008.5R
SOUTHWEST PASS   0500            69      20/ 22/ 24 1008.3F
PILOT STATION E  0406            70 67   10/ 33/ 39 1010.1R
SHELL BEACH      0400            69 75   20/ 16/ 18 1009.0R
PANAMA CITY      0406            67 76  120/  9/ 14 1007.1F
APALACHICOLA     0406            71 72   CALM  /  4 1008.9S
TYNDALL TOWER C  0500            73     140/  7/  8 1008.4F
S APLCHCLA/42036 0450            76 75  200/ 19/ 23 1007.5R
WVE H/P(F/S)=  3/ 3


$$




USA.gov is the U.S. government's official web portal to all federal, state and local government web resources and services.